Lid_Strength_Index
1 1 1 2 2 1 2 3 4 4 4 4 4 4 4 5 4 4 4 4 4 4 4 3 3 2 3 7 6 2 -1 -1 1 3 4 4 6 7 8 7 8 8 8 7 7 7 8
2 2 2 2 1 1 2 3 3 3 3 3 3 3 4 4 4 4 4 4 5 4 4 3 3 2 6 11 5 1 1 3 3 4 4 4 5 5 7 7 8 7 7 7 7 8 8
2 3 3 3 3 3 3 3 3 3 3 3 3 3 3 3 4 4 4 4 5 5 4 4 3 2 6 7 5 5 4 4 3 3 4 3 4 5 6 7 6 6 8 8 7 8 8
3 3 3 3 3 3 4 4 3 4 4 4 4 4 4 4 4 4 4 4 4 4 3 3 2 4 8 3 4 4 4 5 3 3 3 3 4 5 6 6 7 8 9 12 9 8 7
3 3 3 3 3 4 4 4 4 5 4 5 5 5 5 5 5 5 5 5 4 3 3 3 3 5 7 1 4 3 4 5 5 4 4 3 5 7 7 9 11 10 13 11 9 8 9
3 3 3 3 4 5 5 5 4 5 5 5 5 5 5 6 6 6 6 5 5 4 4 3 2 7 5 5 4 4 4 4 5 5 5 6 8 9 10 11 15 12 12 12 12 10 9
4 3 3 3 4 4 5 5 5 5 5 5 5 5 6 6 6 6 7 6 7 7 6 7 7 7 6 5 2 5 4 5 5 6 9 7 11 12 10 8 8 9 10 11 9 7 10
3 3 3 3 3 4 5 5 5 5 5 5 5 5 6 6 6 6 7 8 8 7 9 5 5 5 3 3 6 4 3 7 8 10 8 9 11 9 8 8 8 9 11 11 9 8 9
2 2 3 3 3 4 5 5 5 5 5 5 5 5 5 5 5 6 7 7 4 2 8 7 5 8 7 3 6 6 5 7 10 11 10 11 9 7 8 9 9 9 10 10 10 9 8
2 2 2 2 3 4 4 4 4 4 4 4 4 4 4 4 5 6 7 5 4 2 13 10 9 8 6 4 7 3 3 5 8 10 10 11 9 9 9 9 9 11 8 8 9 10 13
2 2 2 2 3 3 4 4 4 4 4 4 4 4 4 3 7 8 6 5 4 4 21 10 8 4 5 6 6 6 4 6 8 8 8 10 9 10 11 11 9 9 8 9 9 11 12
3 3 3 3 3 3 3 4 3 3 3 3 4 4 4 6 7 6 6 4 4 16 21 10 7 8 8 8 8 6 6 5 5 8 8 9 7 8 8 8 8 8 10 10 11 12 15
3 3 3 3 3 3 3 3 3 3 3 3 4 4 5 5 9 6 6 5 15 20 9 12 12 10 9 11 9 11 9 9 11 13 13 10 9 8 7 9 8 9 11 15 15 16 16
3 3 3 3 3 3 3 3 3 3 3 3 4 4 6 5 6 6 6 11 20 11 11 11 11 11 12 12 12 12 13 13 8 10 13 15 16 10 8 9 10 10 11 15 19 18 15
3 3 3 3 3 3 3 3 3 3 4 4 5 7 7 6 5 6 9 17 18 11 11 12 12 14 14 12 12 13 13 10 9 9 14 15 15 8 8 7 8 11 13 10 13 13 16
3 3 3 3 3 3 3 4 4 4 4 4 10 9 8 6 6 9 13 14 12 10 11 11 15 13 16 14 14 14 13 10 9 7 8 11 15 10 9 8 8 9 8 14 13 21 21
3 3 3 3 3 4 4 3 4 4 4 4 10 11 7 6 8 13 19 16 12 10 9 12 13 14 13 14 14 14 13 11 10 10 9 10 12 12 9 11 12 11 12 12 13 15 20
3 3 3 4 4 4 4 4 4 4 4 7 11 14 7 7 15 15 17 12 9 10 9 10 10 11 12 12 14 14 14 12 9 9 12 9 11 15 13 9 8 10 11 12 17 18 16
3 3 4 4 4 4 4 4 4 4 5 10 13 13 7 9 17 16 12 11 10 10 10 10 11 10 11 13 15 13 12 10 9 10 12 10 13 16 16 12 10 12 12 12 12 12 17
3 3 3 4 4 4 4 4 4 4 4 9 12 17 13 12 12 14 14 13 12 9 10 10 11 11 12 13 12 14 12 10 9 9 6 7 12 14 17 15 12 13 13 13 13 15 15
3 3 3 3 3 3 4 4 4 4 4 9 14 17 12 14 15 14 13 12 13 13 10 10 12 12 13 15 14 14 12 11 10 8 9 10 14 12 12 11 11 12 13 12 13 13 15
3 3 3 3 3 3 4 4 4 4 5 11 16 16 13 15 13 14 13 13 13 12 12 12 12 11 11 13 13 14 12 13 12 10 11 10 14 13 14 11 11 13 13 13 12 12 11
3 3 3 3 3 3 3 4 4 4 6 12 12 12 13 14 15 15 15 13 13 12 12 11 12 12 12 11 9 10 10 10 10 11 12 13 14 15 16 13 13 16 13 12 12 11 12
3 3 3 3 3 3 4 4 4 4 6 11 12 12 14 19 15 15 13 13 13 12 13 11 10 12 9 7 7 8 9 9 9 10 10 13 14 15 18 15 22 14 10 10 11 11 10
4 4 3 3 3 4 4 4 4 4 4 9 10 11 14 15 13 13 13 13 12 11 12 12 9 8 8 9 12 14 14 13 12 11 11 11 13 18 19 18 15 14 12 11 11 12 10
4 4 4 4 4 4 4 4 4 4 5 8 10 9 10 13 15 11 13 12 14 14 13 11 8 8 9 11 15 20 18 16 16 14 10 11 11 14 22 23 23 15 10 8 8 14 8
4 4 4 4 4 4 4 4 4 4 5 8 10 9 10 14 12 12 14 13 11 13 14 12 11 11 9 14 16 17 17 13 17 17 15 14 14 15 15 16 15 11 9 7 14 13 8
4 4 4 4 4 4 4 4 4 4 5 6 8 8 10 14 13 11 10 12 12 12 15 12 12 14 14 16 18 18 16 14 15 13 14 15 15 16 14 15 18 9 9 11 9 8 8
4 4 4 4 4 4 4 4 4 4 4 4 8 7 7 10 10 6 6 8 9 9 11 11 11 12 11 15 14 12 15 13 14 17 11 14 11 13 12 13 9 8 9 7 7 7 8